{"data":{"norad_id":66597,"epoch":"2026-09-20T15:56:49.750944Z","epoch_age_seconds":72707,"freshness":"FRESH","line1":"1 66597U 25270K   26263.66446471  .00008917  00000+0  33310-3 0  9993","line2":"2 66597  43.0005  35.1631 0001443 279.2361  80.8327 15.27586408 47632","mean_motion":15.27586408,"eccentricity":0.0001443,"inclination_deg":43.0005,"raan_deg":35.1631,"arg_perigee_deg":279.2361,"mean_anomaly_deg":80.8327,"bstar":0.0003331,"rev_number":4763,"period_min":94.266353278524,"perigee_km":482.0398418646,"apogee_km":484.01997463432,"semimajor_km":6861.1669082495,"source":"CELESTRAK","updated_at":"2026-09-21T09:00:35.977458Z"}}